| time (UTC) | temp F | wind direction | speed knots | gust knots | rain 1hr in | rain 24hr in | rain mn in | humidity % | barometer mb |
| 20260507104148 | 42 | 193 | 0.9 | 1.7 | 0.00 | 0.00 | 0.00 | 91 | 1007.4 |
| 20260507103644 | 41 | 180 | 1.7 | 1.7 | 0.00 | 0.00 | 0.00 | 94 | 1007.1 |
| 20260507103141 | 41 | 208 | 0.9 | 1.7 | 0.00 | 0.00 | 0.00 | 95 | 1007.1 |
| 20260507102638 | 40 | 151 | 0.0 | 0.0 | 0.00 | 0.00 | 0.00 | 95 | 1007.1 |
| 20260507102134 | 40 | 162 | 0.9 | 0.9 | 0.00 | 0.00 | 0.00 | 96 | 1007.1 |
| 20260507101630 | 39 | 127 | 0.9 | 0.9 | 0.00 | 0.00 | 0.00 | 96 | 1007.4 |
| 20260507101126 | 39 | 121 | 0.0 | 0.9 | 0.00 | 0.00 | 0.00 | 96 | 1007.4 |
| 20260507100624 | 39 | 131 | 0.0 | 0.0 | 0.00 | 0.00 | 0.00 | 95 | 1007.1 |
| 20260507100122 | 39 | 179 | 1.7 | 1.7 | 0.00 | 0.00 | 0.00 | 95 | 1007.1 |
| 20260507095620 | 39 | 129 | 0.0 | 0.9 | 0.00 | 0.00 | 0.00 | 95 | 1007.1 |
| 20260507095116 | 40 | 142 | 0.0 | 0.0 | 0.00 | 0.00 | 0.00 | 95 | 1007.1 |
| 20260507094612 | 39 | 152 | 0.0 | 0.0 | 0.00 | 0.00 | 0.00 | 95 | 1007.1 |
| 20260507094109 | 40 | 107 | 0.9 | 0.9 | 0.00 | 0.00 | 0.00 | 95 | 1007.1 |
| 20260507093606 | 39 | 177 | 0.9 | 0.9 | 0.00 | 0.00 | 0.00 | 95 | 1007.4 |
| 20260507093105 | 39 | 176 | 1.7 | 1.7 | 0.00 | 0.00 | 0.00 | 94 | 1007.1 |
| 20260507092601 | 39 | 134 | 0.0 | 0.0 | 0.00 | 0.00 | 0.00 | 94 | 1007.1 |
| 20260507092058 | 39 | 167 | 0.0 | 0.0 | 0.00 | 0.00 | 0.00 | 94 | 1007.1 |
| 20260507091555 | 41 | 141 | 0.0 | 0.0 | 0.00 | 0.00 | 0.00 | 93 | 1007.1 |
| 20260507091051 | 40 | 170 | 0.9 | 0.9 | 0.00 | 0.00 | 0.00 | 93 | 1007.1 |
| 20260507090546 | 40 | 167 | 0.9 | 1.7 | 0.00 | 0.00 | 0.00 | 94 | 1007.4 |
| 20260507090044 | 40 | 155 | 0.9 | 0.9 | 0.00 | 0.00 | 0.00 | 94 | 1007.4 |
| 20260507085541 | 40 | 140 | 0.9 | 0.9 | 0.00 | 0.00 | 0.00 | 94 | 1007.4 |
| 20260507085037 | 39 | 153 | 0.0 | 0.9 | 0.00 | 0.00 | 0.00 | 94 | 1007.4 |
| 20260507084534 | 39 | 194 | 1.7 | 1.7 | 0.00 | 0.00 | 0.00 | 94 | 1007.4 |
| 20260507084031 | 39 | 176 | 0.0 | 0.0 | 0.00 | 0.00 | 0.00 | 94 | 1007.4 |
| 20260507083527 | 39 | 203 | 1.7 | 1.7 | 0.00 | 0.00 | 0.00 | 94 | 1007.4 |
| 20260507083025 | 39 | 193 | 1.7 | 1.7 | 0.00 | 0.00 | 0.00 | 94 | 1007.1 |
| 20260507082521 | 39 | 195 | 1.7 | 2.6 | 0.00 | 0.00 | 0.00 | 94 | 1007.4 |
| 20260507082017 | 39 | 220 | 2.6 | 2.6 | 0.00 | 0.00 | 0.00 | 94 | 1007.4 |
| 20260507081513 | 40 | 200 | 3.5 | 3.5 | 0.00 | 0.00 | 0.00 | 94 | 1007.4 |
| 20260507081010 | 40 | 200 | 4.3 | 5.2 | 0.00 | 0.00 | 0.00 | 94 | 1007.4 |
| 20260507080506 | 40 | 244 | 1.7 | 2.6 | 0.00 | 0.00 | 0.00 | 94 | 1007.8 |
| 20260507080002 | 40 | 261 | 3.5 | 3.5 | 0.00 | 0.00 | 0.00 | 95 | 1007.4 |
| 20260507075458 | 40 | 210 | 2.6 | 2.6 | 0.00 | 0.00 | 0.00 | 96 | 1007.4 |
| 20260507074954 | 39 | 210 | 1.7 | 2.6 | 0.00 | 0.00 | 0.00 | 96 | 1007.4 |
| 20260507074451 | 39 | 167 | 0.9 | 0.9 | 0.00 | 0.00 | 0.00 | 96 | 1007.1 |
| 20260507073950 | 39 | 181 | 0.9 | 0.9 | 0.00 | 0.00 | 0.00 | 96 | 1007.4 |
| 20260507073445 | 39 | 178 | 1.7 | 2.6 | 0.00 | 0.00 | 0.00 | 96 | 1007.1 |
| 20260507072942 | 39 | 179 | 2.6 | 2.6 | 0.00 | 0.00 | 0.00 | 96 | 1007.1 |
| 20260507072440 | 39 | 157 | 0.9 | 0.9 | 0.00 | 0.00 | 0.00 | 96 | 1007.1 |
| 20260507071937 | 39 | 160 | 0.9 | 1.7 | 0.00 | 0.00 | 0.00 | 95 | 1006.8 |
| 20260507071434 | 40 | 160 | 1.7 | 1.7 | 0.00 | 0.00 | 0.00 | 95 | 1007.1 |
| 20260507070930 | 40 | 163 | 0.9 | 0.9 | 0.00 | 0.00 | 0.00 | 95 | 1006.8 |
| 20260507070428 | 40 | 149 | 0.9 | 0.9 | 0.00 | 0.00 | 0.00 | 95 | 1007.1 |
| 20260507065925 | 41 | 164 | 0.0 | 0.0 | 0.00 | 0.00 | 0.00 | 95 | 1007.1 |
| 20260507065421 | 41 | 143 | 0.0 | 0.0 | 0.00 | 0.00 | 0.00 | 95 | 1006.8 |
| 20260507064919 | 41 | 149 | 0.0 | 0.0 | 0.00 | 0.00 | 0.00 | 95 | 1007.1 |
| 20260507064417 | 42 | 128 | 0.9 | 0.9 | 0.00 | 0.00 | 0.00 | 94 | 1007.1 |
| 20260507063915 | 42 | 146 | 0.9 | 0.9 | 0.00 | 0.00 | 0.00 | 93 | 1007.4 |
| 20260507063411 | 42 | 131 | 0.0 | 0.0 | 0.00 | 0.00 | 0.00 | 93 | 1006.8 |
| 20260507062908 | 42 | 125 | 0.9 | 0.9 | 0.00 | 0.00 | 0.00 | 92 | 1006.8 |
| 20260507062405 | 42 | 165 | 0.0 | 0.0 | 0.00 | 0.00 | 0.00 | 92 | 1007.1 |
| 20260507061903 | 42 | 170 | 0.9 | 0.9 | 0.00 | 0.00 | 0.00 | 92 | 1007.1 |
| 20260507061401 | 42 | 51 | 1.7 | 2.6 | 0.00 | 0.00 | 0.00 | 92 | 1006.8 |
| 20260507060859 | 42 | 291 | 1.7 | 1.7 | 0.00 | 0.00 | 0.00 | 92 | 1007.1 |
| 20260507060355 | 42 | 163 | 0.0 | 0.9 | 0.00 | 0.00 | 0.00 | 92 | 1007.1 |
| 20260507055852 | 42 | 166 | 0.0 | 0.9 | 0.00 | 0.00 | 0.00 | 91 | 1007.1 |
| 20260507055347 | 42 | 159 | 0.0 | 0.9 | 0.00 | 0.00 | 0.00 | 91 | 1007.4 |
| 20260507054844 | 42 | 200 | 1.7 | 1.7 | 0.00 | 0.00 | 0.00 | 92 | 1007.8 |
| 20260507054340 | 42 | 191 | 2.6 | 2.6 | 0.00 | 0.00 | 0.00 | 92 | 1007.4 |
| 20260507053837 | 41 | 178 | 0.9 | 1.7 | 0.00 | 0.00 | 0.00 | 92 | 1007.4 |
| 20260507053335 | 41 | 177 | 1.7 | 2.6 | 0.00 | 0.00 | 0.00 | 92 | 1007.4 |
| 20260507052834 | 41 | 149 | 0.0 | 0.9 | 0.00 | 0.00 | 0.00 | 92 | 1007.4 |
| 20260507052330 | 42 | 158 | 0.0 | 0.9 | 0.00 | 0.00 | 0.00 | 91 | 1007.4 |
| 20260507051828 | 42 | 160 | 0.0 | 0.0 | 0.00 | 0.00 | 0.00 | 91 | 1007.4 |
| 20260507051325 | 42 | 63 | 1.7 | 2.6 | 0.00 | 0.00 | 0.00 | 92 | 1007.1 |
| 20260507050822 | 42 | 170 | 0.0 | 0.9 | 0.00 | 0.00 | 0.00 | 91 | 1007.4 |
| 20260507050318 | 42 | 287 | 0.9 | 1.7 | 0.00 | 0.00 | 0.00 | 92 | 1007.4 |
| 20260507045815 | 41 | 288 | 0.9 | 0.9 | 0.00 | 0.00 | 0.00 | 92 | 1007.8 |
| 20260507045312 | 41 | 278 | 1.7 | 2.6 | 0.00 | 0.00 | 0.00 | 93 | 1007.4 |
| 20260507044809 | 41 | 94 | 0.0 | 0.0 | 0.00 | 0.00 | 0.00 | 92 | 1007.4 |
| 20260507044306 | 42 | 144 | 0.0 | 0.0 | 0.00 | 0.00 | 0.00 | 92 | 1007.4 |
| 20260507043801 | 42 | 202 | 1.7 | 1.7 | 0.00 | 0.00 | 0.00 | 92 | 1007.1 |
| 20260507043258 | 42 | 158 | 0.0 | 0.0 | 0.00 | 0.00 | 0.00 | 91 | 1007.1 |
| 20260507042754 | 42 | 238 | 2.6 | 2.6 | 0.00 | 0.00 | 0.00 | 92 | 1007.4 |
| 20260507042249 | 42 | 175 | 0.9 | 0.9 | 0.00 | 0.00 | 0.00 | 93 | 1007.4 |
| 20260507041747 | 42 | 180 | 0.9 | 0.9 | 0.00 | 0.00 | 0.00 | 94 | 1007.1 |
| 20260507041244 | 42 | 209 | 0.9 | 0.9 | 0.00 | 0.00 | 0.00 | 93 | 1007.4 |
| 20260507040741 | 42 | 185 | 0.9 | 1.7 | 0.00 | 0.00 | 0.00 | 94 | 1007.4 |
| 20260507040237 | 42 | 277 | 1.7 | 2.6 | 0.00 | 0.00 | 0.00 | 95 | 1007.1 |
| 20260507035733 | 42 | 222 | 1.7 | 2.6 | 0.00 | 0.72 | 0.72 | 95 | 1007.1 |
| 20260507035228 | 42 | 168 | 0.9 | 0.9 | 0.00 | 0.72 | 0.72 | 95 | 1007.1 |
| 20260507034726 | 42 | 179 | 1.7 | 2.6 | 0.00 | 0.72 | 0.72 | 96 | 1007.4 |
| 20260507034223 | 43 | 157 | 0.9 | 0.9 | 0.00 | 0.72 | 0.72 | 97 | 1007.1 |
| 20260507033722 | 43 | 148 | 0.0 | 0.0 | 0.00 | 0.72 | 0.72 | 97 | 1007.4 |
| 20260507033219 | 43 | 148 | 0.0 | 0.0 | 0.00 | 0.72 | 0.72 | 97 | 1007.4 |
| 20260507032716 | 43 | 143 | 0.0 | 0.0 | 0.00 | 0.72 | 0.72 | 96 | 1007.4 |
| 20260507032212 | 43 | 170 | 0.9 | 0.9 | 0.00 | 0.72 | 0.72 | 97 | 1007.4 |
| 20260507031709 | 43 | 136 | 0.0 | 0.0 | 0.00 | 0.72 | 0.72 | 97 | 1007.4 |
| 20260507031205 | 43 | 307 | 3.5 | 5.2 | 0.00 | 0.72 | 0.72 | 97 | 1007.4 |
| 20260507030702 | 43 | 177 | 0.9 | 0.9 | 0.00 | 0.72 | 0.72 | 97 | 1007.4 |
| 20260507030200 | 43 | 181 | 0.9 | 0.9 | 0.00 | 0.72 | 0.72 | 97 | 1007.8 |
| 20260507025657 | 43 | 357 | 2.6 | 2.6 | 0.00 | 0.72 | 0.72 | 98 | 1007.4 |
| 20260507025154 | 44 | 157 | 0.0 | 0.0 | 0.00 | 0.72 | 0.72 | 98 | 1007.4 |
| 20260507024652 | 44 | 145 | 0.0 | 0.0 | 0.00 | 0.72 | 0.72 | 98 | 1007.4 |
| 20260507024149 | 44 | 198 | 1.7 | 2.6 | 0.00 | 0.72 | 0.72 | 98 | 1007.4 |
| 20260507023644 | 44 | 129 | 0.0 | 0.0 | 0.00 | 0.72 | 0.72 | 98 | 1007.4 |
| 20260507023142 | 44 | 139 | 0.0 | 0.0 | 0.00 | 0.72 | 0.72 | 98 | 1007.8 |
| 20260507022639 | 44 | 259 | 1.7 | 1.7 | 0.05 | 0.72 | 0.72 | 98 | 1007.8 |
| 20260507022134 | 44 | 171 | 0.9 | 0.9 | 0.05 | 0.72 | 0.72 | 98 | 1007.4 |
| 20260507021631 | 44 | 187 | 1.7 | 1.7 | 0.00 | 0.71 | 0.71 | 98 | 1008.1 |
| 20260507021126 | 44 | 156 | 0.0 | 0.0 | 0.00 | 0.71 | 0.71 | 98 | 1007.8 |
| 20260507020625 | 44 | 155 | 0.0 | 0.0 | 0.00 | 0.71 | 0.71 | 98 | 1007.8 |
| 20260507020121 | 44 | 97 | 0.9 | 0.9 | 0.00 | 0.71 | 0.71 | 98 | 1007.8 |
| 20260507015619 | 44 | 46 | 1.7 | 2.6 | 0.00 | 0.71 | 0.71 | 98 | 1007.8 |
| 20260507015116 | 44 | 144 | 0.9 | 0.9 | 0.00 | 0.71 | 0.71 | 98 | 1007.4 |
| 20260507014613 | 44 | 163 | 0.9 | 1.7 | 0.00 | 0.71 | 0.71 | 98 | 1007.4 |
| 20260507014109 | 44 | 102 | 0.9 | 1.7 | 0.07 | 0.71 | 0.71 | 98 | 1007.4 |
| 20260507013606 | 44 | 92 | 0.9 | 0.9 | 0.07 | 0.71 | 0.71 | 98 | 1007.4 |
| 20260507013103 | 44 | 174 | 0.9 | 0.9 | 0.00 | 0.70 | 0.70 | 98 | 1007.4 |
| 20260507012600 | 44 | 137 | 0.0 | 0.9 | 0.00 | 0.70 | 0.70 | 98 | 1007.4 |
| 20260507012055 | 44 | 133 | 0.9 | 0.9 | 0.00 | 0.70 | 0.70 | 97 | 1007.4 |
| 20260507011553 | 44 | 344 | 1.7 | 2.6 | 0.00 | 0.70 | 0.70 | 97 | 1007.4 |
| 20260507011044 | 44 | 139 | 0.0 | 0.9 | 0.00 | 0.70 | 0.70 | 97 | 1007.4 |
| 20260507010539 | 44 | 41 | 1.7 | 2.6 | 0.00 | 0.70 | 0.70 | 97 | 1007.4 |
| 20260507010035 | 44 | 171 | 0.0 | 0.0 | 0.05 | 0.70 | 0.70 | 97 | 1007.8 |
| 20260507005533 | 43 | 158 | 0.9 | 0.9 | 0.05 | 0.70 | 0.70 | 97 | 1007.1 |
| 20260507005029 | 43 | 245 | 2.6 | 2.6 | 0.00 | 0.69 | 0.69 | 97 | 1007.1 |
| 20260507004526 | 43 | 93 | 0.9 | 1.7 | 0.00 | 0.69 | 0.69 | 97 | 1007.4 |
| 20260507004023 | 43 | 17 | 2.6 | 6.1 | 0.07 | 0.69 | 0.69 | 97 | 1007.1 |
| 20260507003519 | 44 | 43 | 1.7 | 1.7 | 0.07 | 0.69 | 0.69 | 97 | 1006.8 |
| 20260507003014 | 44 | 39 | 2.6 | 2.6 | 0.00 | 0.68 | 0.68 | 97 | 1007.1 |
| 20260507002511 | 44 | 318 | 3.5 | 5.2 | 0.00 | 0.68 | 0.68 | 97 | 1006.8 |
| 20260507002007 | 44 | 191 | 1.7 | 1.7 | 0.00 | 0.68 | 0.68 | 97 | 1006.8 |
| 20260507001503 | 44 | 124 | 0.0 | 0.0 | 0.05 | 0.68 | 0.68 | 97 | 1006.8 |
| 20260507001001 | 44 | 125 | 0.9 | 0.9 | 0.05 | 0.68 | 0.68 | 97 | 1006.8 |
| 20260507000457 | 44 | 54 | 2.6 | 3.5 | 0.00 | 0.67 | 0.67 | 97 | 1006.4 |
| 20260506235952 | 44 | 49 | 1.7 | 2.6 | 0.00 | 0.67 | 0.67 | 98 | 1006.4 |
| 20260506235450 | 45 | 195 | 1.7 | 2.6 | 0.00 | 0.67 | 0.67 | 98 | 1006.4 |
| 20260506234946 | 44 | 134 | 1.7 | 2.6 | 0.00 | 0.67 | 0.67 | 98 | 1006.1 |
| 20260506234444 | 45 | 44 | 3.5 | 3.5 | 0.00 | 0.67 | 0.67 | 98 | 1006.1 |
| 20260506233941 | 45 | 48 | 1.7 | 1.7 | 0.00 | 0.67 | 0.67 | 98 | 1006.1 |
| 20260506233437 | 45 | 76 | 1.7 | 2.6 | 0.00 | 0.67 | 0.67 | 98 | 1005.8 |
| 20260506232934 | 45 | 102 | 1.7 | 1.7 | 0.00 | 0.67 | 0.67 | 98 | 1005.8 |
| 20260506232430 | 45 | 84 | 0.9 | 1.7 | 0.00 | 0.67 | 0.67 | 98 | 1005.8 |
| 20260506231926 | 45 | 48 | 2.6 | 3.5 | 0.00 | 0.67 | 0.67 | 98 | 1005.8 |
| 20260506231423 | 45 | 75 | 2.6 | 2.6 | 0.00 | 0.67 | 0.67 | 98 | 1005.8 |
| 20260506230921 | 45 | 31 | 7.0 | 8.7 | 0.00 | 0.67 | 0.67 | 98 | 1005.8 |
| 20260506230417 | 45 | 136 | 0.0 | 0.9 | 0.00 | 0.67 | 0.67 | 98 | 1005.3 |
| 20260506225914 | 45 | 36 | 1.7 | 1.7 | 0.00 | 0.67 | 0.67 | 98 | 1005.3 |
| 20260506225411 | 45 | 103 | 1.7 | 1.7 | 0.00 | 0.67 | 0.67 | 98 | 1005.8 |
| 20260506224908 | 45 | 50 | 0.9 | 1.7 | 0.00 | 0.67 | 0.67 | 98 | 1005.3 |
| 20260506224405 | 46 | 343 | 2.6 | 3.5 | 0.00 | 0.67 | 0.67 | 98 | 1005.3 |
| 20260506223901 | 46 | 94 | 0.0 | 0.9 | 0.00 | 0.67 | 0.67 | 98 | 1005.3 |
| 20260506223356 | 46 | 81 | 6.1 | 7.8 | 0.00 | 0.67 | 0.67 | 98 | 1005.0 |
| 20260506222854 | 46 | 153 | 0.0 | 0.0 | 0.00 | 0.67 | 0.67 | 98 | 1005.3 |
| 20260506222350 | 46 | 131 | 0.9 | 0.9 | 0.00 | 0.67 | 0.67 | 98 | 1005.3 |
| 20260506221848 | 46 | 155 | 0.0 | 0.0 | 0.00 | 0.67 | 0.67 | 98 | 1005.0 |
| 20260506221345 | 46 | 95 | 1.7 | 1.7 | 0.00 | 0.67 | 0.67 | 98 | 1005.0 |
| 20260506220842 | 46 | 108 | 0.0 | 0.0 | 0.00 | 0.67 | 0.67 | 98 | 1005.0 |
| 20260506220338 | 46 | 45 | 3.5 | 5.2 | 0.00 | 0.67 | 0.67 | 98 | 1005.3 |
| 20260506215835 | 46 | 39 | 1.7 | 1.7 | 0.00 | 0.67 | 0.67 | 98 | 1005.0 |
| 20260506215330 | 46 | 109 | 0.9 | 0.9 | 0.00 | 0.67 | 0.67 | 98 | 1004.6 |
| 20260506214827 | 46 | 44 | 3.5 | 3.5 | 0.00 | 0.67 | 0.67 | 98 | 1004.6 |
| 20260506214324 | 46 | 79 | 1.7 | 2.6 | 0.00 | 0.67 | 0.67 | 98 | 1005.0 |
| 20260506213822 | 47 | 75 | 2.6 | 2.6 | 0.00 | 0.67 | 0.67 | 98 | 1004.6 |
| 20260506213319 | 47 | 97 | 1.7 | 2.6 | 0.00 | 0.67 | 0.67 | 98 | 1004.6 |
| 20260506212816 | 47 | 76 | 0.9 | 1.7 | 0.00 | 0.67 | 0.67 | 98 | 1004.6 |
| 20260506212312 | 48 | 82 | 2.6 | 3.5 | 0.00 | 0.67 | 0.67 | 98 | 1004.6 |
| 20260506211807 | 48 | 105 | 0.9 | 0.9 | 0.00 | 0.67 | 0.67 | 99 | 1004.6 |
| 20260506211303 | 48 | 342 | 3.5 | 3.5 | 0.00 | 0.67 | 0.67 | 98 | 1005.0 |
| 20260506210801 | 48 | 68 | 2.6 | 2.6 | 0.00 | 0.67 | 0.67 | 98 | 1005.0 |
| 20260506210257 | 49 | 69 | 0.9 | 0.9 | 0.00 | 0.67 | 0.67 | 98 | 1004.6 |
| 20260506205754 | 50 | 79 | 1.7 | 2.6 | 0.00 | 0.67 | 0.67 | 98 | 1004.6 |
| 20260506205250 | 50 | 6 | 1.7 | 1.7 | 0.00 | 0.67 | 0.67 | 98 | 1004.6 |
| 20260506204747 | 50 | 175 | 0.9 | 1.7 | 0.00 | 0.67 | 0.67 | 98 | 1004.6 |
| 20260506204245 | 50 | 76 | 0.9 | 1.7 | 0.07 | 0.67 | 0.67 | 98 | 1004.3 |
| 20260506203742 | 51 | 75 | 0.0 | 0.9 | 0.12 | 0.67 | 0.67 | 98 | 1004.3 |
| 20260506203239 | 51 | 125 | 0.9 | 0.9 | 0.31 | 0.66 | 0.66 | 98 | 1004.3 |
| 20260506202736 | 53 | 338 | 4.3 | 5.2 | 0.43 | 0.64 | 0.64 | 98 | 1004.3 |
| 20260506202233 | 54 | 201 | 2.6 | 2.6 | 0.35 | 0.61 | 0.61 | 98 | 1004.0 |
| 20260506201730 | 57 | 304 | 3.5 | 3.5 | 0.24 | 0.57 | 0.57 | 98 | 1004.3 |
| 20260506201226 | 58 | 177 | 1.7 | 1.7 | 0.12 | 0.54 | 0.54 | 98 | 1004.0 |
| 20260506200723 | 58 | 250 | 2.6 | 2.6 | 0.05 | 0.53 | 0.53 | 98 | 1004.0 |
| 20260506200220 | 58 | 237 | 1.7 | 2.6 | 0.00 | 0.52 | 0.52 | 98 | 1004.0 |
| 20260506195716 | 58 | 163 | 1.7 | 1.7 | 0.00 | 0.52 | 0.52 | 98 | 1003.6 |
| 20260506195212 | 58 | 195 | 2.6 | 3.5 | 0.07 | 0.52 | 0.52 | 97 | 1004.0 |
| 20260506194705 | 58 | 204 | 1.7 | 1.7 | 0.05 | 0.51 | 0.51 | 97 | 1004.0 |
| 20260506194201 | 58 | 202 | 1.7 | 1.7 | 0.12 | 0.51 | 0.51 | 97 | 1004.0 |
| 20260506193658 | 58 | 179 | 1.7 | 3.5 | 0.14 | 0.50 | 0.50 | 97 | 1004.0 |
| 20260506193155 | 58 | 182 | 1.7 | 2.6 | 0.07 | 0.49 | 0.49 | 97 | 1004.3 |
| 20260506192652 | 58 | 173 | 1.7 | 2.6 | 0.00 | 0.48 | 0.48 | 98 | 1004.0 |
| 20260506192148 | 58 | 205 | 2.6 | 2.6 | 0.05 | 0.48 | 0.48 | 98 | 1004.3 |
| 20260506191646 | 58 | 168 | 0.9 | 0.9 | 0.05 | 0.48 | 0.48 | 98 | 1004.3 |
| 20260506191141 | 58 | 152 | 0.0 | 0.0 | 0.00 | 0.47 | 0.47 | 98 | 1004.3 |
| 20260506190639 | 57 | 208 | 3.5 | 3.5 | 0.00 | 0.47 | 0.47 | 98 | 1004.3 |
| 20260506190135 | 58 | 162 | 1.7 | 1.7 | 0.07 | 0.47 | 0.47 | 99 | 1004.0 |
| 20260506185633 | 58 | 156 | 0.9 | 1.7 | 0.07 | 0.47 | 0.47 | 99 | 1004.3 |
| 20260506185129 | 57 | 151 | 1.7 | 1.7 | 0.00 | 0.46 | 0.46 | 99 | 1004.3 |
| 20260506184626 | 57 | 156 | 0.0 | 0.9 | 0.00 | 0.46 | 0.46 | 99 | 1004.6 |
| 20260506184123 | 57 | 155 | 0.0 | 0.0 | 0.00 | 0.46 | 0.46 | 99 | 1004.3 |
| 20260506183620 | 57 | 160 | 0.0 | 0.9 | 0.00 | 0.46 | 0.46 | 99 | 1004.6 |
| 20260506183116 | 57 | 175 | 0.9 | 0.9 | 0.00 | 0.46 | 0.46 | 99 | 1004.6 |
| 20260506182614 | 57 | 175 | 1.7 | 1.7 | 0.00 | 0.46 | 0.46 | 99 | 1004.6 |
| 20260506182110 | 57 | 186 | 0.0 | 0.0 | 0.12 | 0.46 | 0.46 | 99 | 1004.6 |
| 20260506181609 | 56 | 113 | 0.9 | 0.9 | 0.12 | 0.45 | 0.45 | 99 | 1004.6 |
| 20260506181105 | 56 | 187 | 1.7 | 1.7 | 0.12 | 0.44 | 0.44 | 98 | 1005.0 |
| 20260506180602 | 56 | 117 | 0.0 | 0.9 | 0.12 | 0.43 | 0.43 | 98 | 1004.6 |
| 20260506180059 | 56 | 135 | 0.0 | 0.0 | 0.12 | 0.42 | 0.42 | 98 | 1005.0 |
| 20260506175555 | 56 | 159 | 0.0 | 0.0 | 0.12 | 0.41 | 0.41 | 98 | 1005.3 |
| 20260506175051 | 56 | 160 | 0.0 | 0.0 | 0.17 | 0.40 | 0.40 | 98 | 1005.3 |
| 20260506174550 | 56 | 158 | 0.9 | 0.9 | 0.19 | 0.38 | 0.38 | 97 | 1005.3 |
| 20260506174046 | 56 | 169 | 0.0 | 0.0 | 0.19 | 0.37 | 0.37 | 97 | 1005.3 |
| 20260506173544 | 56 | 179 | 0.9 | 0.9 | 0.17 | 0.35 | 0.35 | 97 | 1005.3 |
| 20260506173040 | 56 | 172 | 0.0 | 0.0 | 0.17 | 0.33 | 0.33 | 97 | 1005.3 |
| 20260506172538 | 56 | 188 | 0.9 | 0.9 | 0.19 | 0.32 | 0.32 | 97 | 1005.3 |
| 20260506172034 | 56 | 189 | 0.9 | 1.7 | 0.24 | 0.30 | 0.30 | 97 | 1005.8 |
| 20260506171531 | 56 | 178 | 4.3 | 5.2 | 0.31 | 0.28 | 0.28 | 97 | 1005.8 |
| 20260506171029 | 56 | 156 | 1.7 | 1.7 | 0.26 | 0.26 | 0.26 | 97 | 1006.1 |
| 20260506170526 | 56 | 162 | 0.9 | 0.9 | 0.19 | 0.23 | 0.23 | 97 | 1005.8 |
| 20260506170023 | 56 | 167 | 0.9 | 0.9 | 0.17 | 0.22 | 0.22 | 96 | 1005.8 |
| 20260506165522 | 56 | 162 | 0.0 | 0.0 | 0.24 | 0.20 | 0.20 | 96 | 1005.8 |
| 20260506165018 | 56 | 160 | 1.7 | 1.7 | 0.50 | 0.19 | 0.19 | 95 | 1006.1 |
| 20260506164514 | 57 | 210 | 0.9 | 0.9 | 0.19 | 0.13 | 0.13 | 95 | 1006.1 |
| 20260506164012 | 57 | 195 | 0.9 | 0.9 | 0.05 | 0.11 | 0.11 | 95 | 1005.8 |
| 20260506163508 | 57 | 160 | 0.9 | 0.9 | 0.07 | 0.10 | 0.10 | 94 | 1005.8 |
| 20260506163004 | 57 | 133 | 0.0 | 0.0 | 0.12 | 0.10 | 0.10 | 95 | 1005.8 |
| 20260506162500 | 57 | 164 | 1.7 | 2.6 | 0.05 | 0.09 | 0.09 | 94 | 1006.1 |
| 20260506161957 | 57 | 197 | 0.9 | 0.9 | 0.07 | 0.08 | 0.08 | 94 | 1006.1 |
| 20260506161455 | 56 | 183 | 3.5 | 3.5 | 0.05 | 0.07 | 0.07 | 94 | 1006.1 |
| 20260506160952 | 56 | 189 | 0.9 | 1.7 | 0.05 | 0.07 | 0.07 | 94 | 1006.4 |
| 20260506160449 | 56 | 220 | 0.9 | 1.7 | 0.00 | 0.06 | 0.06 | 94 | 1006.4 |
| 20260506155946 | 56 | 192 | 3.5 | 3.5 | 0.07 | 0.06 | 0.06 | 93 | 1006.4 |
| 20260506155444 | 56 | 193 | 1.7 | 1.7 | 0.07 | 0.06 | 0.06 | 94 | 1006.4 |
| 20260506153611 | 56 | 126 | 0.9 | 0.9 | 0.05 | 0.05 | 0.05 | 94 | 1006.8 |
| 20260506153108 | 56 | 206 | 3.5 | 5.2 | 0.00 | 0.04 | 0.04 | 93 | 1006.8 |
| 20260506152605 | 56 | 150 | 0.0 | 0.9 | 0.00 | 0.04 | 0.04 | 94 | 1006.8 |
| 20260506152103 | 55 | 206 | 3.5 | 3.5 | 0.00 | 0.04 | 0.04 | 93 | 1007.1 |
| 20260506151601 | 55 | 174 | 0.9 | 0.9 | 0.07 | 0.04 | 0.04 | 93 | 1007.1 |
| 20260506151058 | 55 | 191 | 0.9 | 0.9 | 0.07 | 0.04 | 0.04 | 93 | 1007.1 |
| 20260506150554 | 55 | 190 | 1.7 | 1.7 | 0.00 | 0.03 | 0.03 | 93 | 1007.4 |
| 20260506150051 | 55 | 181 | 2.6 | 2.6 | 0.00 | 0.03 | 0.03 | 93 | 1007.1 |
| 20260506145548 | 55 | 181 | 0.9 | 0.9 | 0.05 | 0.03 | 0.03 | 93 | 1007.4 |
| 20260506145045 | 55 | 191 | 0.9 | 0.9 | 0.05 | 0.03 | 0.03 | 93 | 1007.1 |
| 20260506144542 | 55 | 195 | 1.7 | 1.7 | 0.00 | 0.02 | 0.02 | 93 | 1007.1 |
| 20260506144039 | 55 | 223 | 2.6 | 2.6 | 0.07 | 0.02 | 0.02 | 92 | 1007.4 |
| 20260506143537 | 55 | 168 | 0.9 | 1.7 | 0.07 | 0.02 | 0.02 | 92 | 1007.4 |
| 20260506143035 | 56 | 179 | 0.9 | 0.9 | 0.05 | 0.01 | 0.01 | 91 | 1007.4 |
| 20260506142532 | 56 | 168 | 0.0 | 0.9 | 0.05 | 0.01 | 0.01 | 91 | 1007.4 |
| 20260506142031 | 56 | 186 | 0.9 | 0.9 | 0.00 | 0.00 | 0.00 | 90 | 1007.1 |
| 20260506141528 | 56 | 223 | 3.5 | 3.5 | 0.00 | 0.00 | 0.00 | 90 | 1007.1 |
| 20260506141026 | 56 | 184 | 1.7 | 1.7 | 0.00 | 0.00 | 0.00 | 90 | 1007.1 |
| 20260506140523 | 56 | 171 | 1.7 | 2.6 | 0.00 | 0.00 | 0.00 | 89 | 1007.1 |
| 20260506140020 | 56 | 184 | 2.6 | 2.6 | 0.00 | 0.00 | 0.00 | 89 | 1007.1 |
| 20260506135517 | 56 | 202 | 1.7 | 2.6 | 0.00 | 0.00 | 0.00 | 89 | 1007.4 |
| 20260506135013 | 55 | 177 | 2.6 | 2.6 | 0.00 | 0.00 | 0.00 | 90 | 1007.1 |
| 20260506134510 | 55 | 201 | 2.6 | 2.6 | 0.00 | 0.00 | 0.00 | 90 | 1007.1 |
| 20260506134006 | 55 | 176 | 0.0 | 0.9 | 0.00 | 0.00 | 0.00 | 90 | 1007.1 |
| 20260506133503 | 55 | 201 | 1.7 | 2.6 | 0.00 | 0.00 | 0.00 | 90 | 1007.1 |
| 20260506133000 | 55 | 170 | 0.0 | 0.0 | 0.00 | 0.00 | 0.00 | 90 | 1007.1 |
| 20260506132457 | 55 | 179 | 0.0 | 0.9 | 0.00 | 0.00 | 0.00 | 91 | 1007.4 |
| 20260506131954 | 55 | 172 | 1.7 | 1.7 | 0.00 | 0.00 | 0.00 | 91 | 1007.4 |
| 20260506131451 | 55 | 208 | 2.6 | 3.5 | 0.00 | 0.00 | 0.00 | 91 | 1007.4 |
| 20260506130948 | 55 | 201 | 3.5 | 3.5 | 0.00 | 0.00 | 0.00 | 91 | 1007.4 |
| 20260506130444 | 55 | 201 | 3.5 | 5.2 | 0.00 | 0.00 | 0.00 | 91 | 1007.8 |
| 20260506125942 | 55 | 206 | 2.6 | 2.6 | 0.00 | 0.00 | 0.00 | 91 | 1007.8 |
| 20260506125440 | 55 | 206 | 3.5 | 5.2 | 0.00 | 0.00 | 0.00 | 91 | 1007.8 |
| 20260506124938 | 55 | 195 | 3.5 | 3.5 | 0.00 | 0.00 | 0.00 | 91 | 1007.4 |
| 20260506124435 | 55 | 180 | 0.9 | 0.9 | 0.00 | 0.00 | 0.00 | 91 | 1007.4 |
| 20260506123933 | 55 | 105 | 0.9 | 0.9 | 0.00 | 0.00 | 0.00 | 90 | 1007.4 |
| 20260506123431 | 55 | 180 | 0.9 | 1.7 | 0.00 | 0.00 | 0.00 | 90 | 1007.4 |
| 20260506122929 | 55 | 181 | 3.5 | 3.5 | 0.00 | 0.00 | 0.00 | 90 | 1007.4 |
| 20260506122425 | 55 | 190 | 2.6 | 2.6 | 0.00 | 0.00 | 0.00 | 90 | 1007.4 |
| 20260506121924 | 55 | 190 | 3.5 | 3.5 | 0.00 | 0.00 | 0.00 | 90 | 1007.4 |
| 20260506121420 | 55 | 190 | 3.5 | 3.5 | 0.00 | 0.00 | 0.00 | 90 | 1007.8 |
| 20260506120917 | 55 | 249 | 3.5 | 5.2 | 0.00 | 0.00 | 0.00 | 90 | 1007.8 |
| 20260506120414 | 55 | 213 | 0.9 | 1.7 | 0.00 | 0.00 | 0.00 | 90 | 1007.8 |
| 20260506115912 | 55 | 174 | 1.7 | 1.7 | 0.00 | 0.00 | 0.00 | 90 | 1007.4 |
| 20260506115410 | 55 | 189 | 3.5 | 3.5 | 0.00 | 0.00 | 0.00 | 90 | 1007.8 |
| 20260506114908 | 55 | 246 | 4.3 | 6.1 | 0.00 | 0.00 | 0.00 | 90 | 1007.8 |
| 20260506114405 | 55 | 213 | 1.7 | 1.7 | 0.00 | 0.00 | 0.00 | 90 | 1007.8 |
| 20260506113904 | 55 | 191 | 1.7 | 1.7 | 0.00 | 0.00 | 0.00 | 90 | 1007.4 |
| 20260506113401 | 55 | 208 | 6.1 | 9.6 | 0.00 | 0.00 | 0.00 | 90 | 1007.8 |
| 20260506112857 | 55 | 212 | 4.3 | 6.1 | 0.00 | 0.00 | 0.00 | 91 | 1007.4 |
| 20260506112354 | 54 | 206 | 4.3 | 5.2 | 0.00 | 0.00 | 0.00 | 93 | 1007.4 |
| 20260506111851 | 54 | 194 | 3.5 | 3.5 | 0.00 | 0.00 | 0.00 | 95 | 1007.4 |
| 20260506111350 | 53 | 184 | 1.7 | 2.6 | 0.00 | 0.00 | 0.00 | 96 | 1007.4 |
| 20260506110847 | 53 | 207 | 1.7 | 1.7 | 0.00 | 0.00 | 0.00 | 97 | 1007.4 |
| 20260506110344 | 53 | 198 | 0.0 | 0.0 | 0.00 | 0.00 | 0.00 | 97 | 1007.4 |
| 20260506105841 | 53 | 198 | 2.6 | 2.6 | 0.00 | 0.00 | 0.00 | 97 | 1007.8 |
| 20260506105337 | 52 | 185 | 0.0 | 0.0 | 0.00 | 0.00 | 0.00 | 97 | 1008.1 |
| 20260506104835 | 52 | 187 | 0.0 | 0.9 | 0.00 | 0.00 | 0.00 | 97 | 1007.8 |